Flag Weather past 2 weeks in Fukushima, Japan

Now
64 °F

Mild.


Feels Like: 64 °F
Forecast: 45 / 65 °F
Wind: 1 mph from Southwest

Location: Wakamatsu

Current Time: Oct 31, 2014 at 3:27:06 PM

Latest Report: Oct 31, 2014 at 2:00 PM


Visibility: 13 mi

Pressure: 30.18 "Hg

Humidity: 57%

Dew point: 48 °F

Location of FukushimaLocation

Historic Weather in Fukushima — Graph

°F

Fukushima temperature yesterday

Maximum temperature yesterday: 65 °F (at 3:00 PM)
Minimum temperature yesterday: 37 °F (at 6:00 AM)
Average temperature yesterday: 49 °F

Past Weeks' High & Low Weather Summary

 TemperatureHumidityPressure
High70 °F (Oct 19, 3:00 PM)100% (Oct 25, 4:00 AM)30.45 "Hg (Oct 25, 4:00 AM)
Low37 °F (Oct 30, 6:00 AM)37% (Oct 18, 1:00 PM)29.86 "Hg (Oct 27, 12:00 PM)
Average53 °F83%30.17 "Hg
* Reported Oct 16 2:00 PM — Oct 31 2:00 PM, Fukushima, Weather by CustomWeather, © 2014

Note: Actual official high and low records may vary slightly from our data, if they occured in-between our weather recording intervals... More about our weather records

Advertising

Fukushima weather history for previous 24 hours

 ConditionsComfort  
Time TempWeatherWind HumidityBarometerVisibility
2:00 PM
Oct 31
64 °FMild.1 mph57%30.18 "Hg12 mi
1:00 PM62 °FRefreshingly cool.2 mph59%30.20 "Hg12 mi
12:00 PM59 °FCool.2 mph64%30.24 "Hg12 mi
11:00 AM55 °FCool.2 mph73%30.27 "Hg11 mi
10:00 AM49 °FCool.2 mph91%30.32 "Hg7 mi
9:00 AM44 °FDuststorm.2 mph100%30.34 "Hg1 mi
8:00 AM42 °FDuststorm.1 mph98%30.37 "Hg0 mi
7:00 AM41 °FLight rain. Cloudy.No wind98%30.36 "Hg0 mi
6:00 AM41 °FDuststorm.1 mph98%30.36 "Hg0 mi
5:00 AM41 °FDuststorm.1 mph98%30.35 "Hg0 mi
4:00 AM40 °FDuststorm.1 mph98%30.34 "Hg1 mi
3:00 AM42 °FDuststorm.2 mph98%30.34 "Hg1 mi
2:00 AM42 °FFog.1 mph96%30.34 "Hg4 mi
1:00 AM43 °FFog.2 mph97%30.35 "Hg5 mi
12:00 AM45 °FQuite cool.2 mph96%30.34 "Hg6 mi
11:00 PM
Oct 30
45 °FFog.1 mph97%30.35 "Hg4 mi
10:00 PM46 °FCool.1 mph95%30.34 "Hg9 mi
9:00 PM48 °FCool.1 mph96%30.34 "Hg9 mi
8:00 PM51 °FCool.3 mph90%30.32 "Hg12 mi
7:00 PM51 °FCool.1 mph90%30.31 "Hg12 mi
6:00 PM53 °FCool.3 mph87%30.30 "Hg12 mi
5:00 PM58 °FCool.5 mph72%30.28 "Hg10 mi
4:00 PM64 °FMild.3 mph56%30.26 "Hg12 mi
3:00 PM65 °FMild.3 mph53%30.25 "Hg12 mi
Weather by CustomWeather, © 2014

See weather overviewHow to use our weather pages